Location: Caseificio
(44.7500°N, 11.0500°E)
Time: 17:39:33
(UTC+00:00)

Cosmos 1674 - Pass Details

Date: 26 May 2022
Orbit: 487 x 510 km, 82.5° (Epoch: 06 July)

Event Time Altitude Azimuth Distance (km) Brightness Sun altitude
Exits shadow 00:11:38 26° 291° (WNW) 1,025 4.2 -22.8°
Drops below altitude 10° 00:14:39 10° 344° (NNW) 1,720 6.1 -22.7°
Sets 00:17:03 0° 358° (N) 2,614 7.5 -22.5°
